• In Czech Republic
  • List of Countries
  • For 7 days
  • Water Temperature
  • Satellite Maps
  • Weather Map
  • Weather Widgets
  • user-avatar
    Login

    Hourly Weather Kazminka

    Today, 21 April, Saturday

    Time Temperature Precipitation Wind Pressure Humidity
    00:00 +7°C° 0 mm 2 mps 740 mmHg 84%
    01:00 +5°C° 0 mm 3 mps 740 mmHg 85%
    02:00 +5°C° 0 mm 3 mps 740 mmHg 85%
    03:00 +5°C° 0 mm 3 mps 739 mmHg 85%
    04:00 +5°C° 0 mm 4 mps 738 mmHg 84%
    05:00 +5°C° 0 mm 4 mps 738 mmHg 83%
    06:00 +7°C° 0 mm 5 mps 737 mmHg 78%
    07:00 +9°C° 0 mm 6 mps 736 mmHg 72%
    08:00 +11°C° 0 mm 7 mps 736 mmHg 67%
    09:00 +12°C° 0 mm 7 mps 735 mmHg 63%
    10:00 +15°C° 0 mm 8 mps 734 mmHg 58%
    11:00 +17°C° 0 mm 9 mps 733 mmHg 53%
    12:00 +17°C° 0 mm 9 mps 732 mmHg 51%
    13:00 +18°C° 0 mm 9 mps 731 mmHg 49%
    14:00 +19°C° 0 mm 10 mps 730 mmHg 47%
    15:00 +18°C° 0.1 mm 9 mps 729 mmHg 51%
    16:00 +17°C° 0.1 mm 9 mps 728 mmHg 56%
    17:00 +17°C° 0.1 mm 8 mps 727 mmHg 60%
    18:00 +16°C° 0.6 mm 8 mps 727 mmHg 63%
    19:00 +13°C° 0.6 mm 8 mps 727 mmHg 65%
    20:00 +12°C° 0.6 mm 8 mps 727 mmHg 68%
    21:00 +10°C° 0 mm 7 mps 727 mmHg 69%
    22:00 +8°C° 0 mm 7 mps 728 mmHg 70%
    23:00 +5°C° 0 mm 6 mps 728 mmHg 72%

    Tomorrow, 22 April, Sunday

    Time Temperature Precipitation Wind Pressure Humidity
    00:00 +5°C° 0 mm 6 mps 729 mmHg 73%
    01:00 +5°C° 0 mm 6 mps 729 mmHg 74%
    02:00 +4°C° 0 mm 7 mps 729 mmHg 75%
    03:00 +4°C° 0 mm 7 mps 729 mmHg 75%
    04:00 +4°C° 0 mm 7 mps 730 mmHg 75%
    05:00 +4°C° 0 mm 7 mps 730 mmHg 75%
    06:00 +4°C° 0.1 mm 7 mps 730 mmHg 73%
    07:00 +5°C° 0.1 mm 8 mps 730 mmHg 71%
    08:00 +5°C° 0.1 mm 8 mps 731 mmHg 69%
    09:00 +6°C° 0.3 mm 8 mps 731 mmHg 66%
    10:00 +6°C° 0.3 mm 8 mps 731 mmHg 64%
    11:00 +7°C° 0.3 mm 8 mps 731 mmHg 62%
    12:00 +7°C° 0.3 mm 8 mps 731 mmHg 61%
    13:00 +7°C° 0.3 mm 8 mps 732 mmHg 60%
    14:00 +8°C° 0.3 mm 7 mps 732 mmHg 59%
    15:00 +8°C° 0.3 mm 7 mps 732 mmHg 60%
    16:00 +8°C° 0.3 mm 7 mps 733 mmHg 60%
    17:00 +7°C° 0.3 mm 6 mps 733 mmHg 61%
    18:00 +6°C° 0 mm 5 mps 734 mmHg 65%
    19:00 +5°C° 0 mm 4 mps 734 mmHg 69%
    20:00 +3°C° 0 mm 3 mps 735 mmHg 74%
    21:00 +3°C° 0 mm 3 mps 735 mmHg 74%
    22:00 +3°C° 0 mm 3 mps 736 mmHg 74%
    23:00 +2°C° 0 mm 3 mps 736 mmHg 75%

    Day after tomorrow, 23 April, Monday

    Time Temperature Precipitation Wind Pressure Humidity
    00:00 +2°C° 0 mm 3 mps 736 mmHg 74%
    01:00 +2°C° 0 mm 3 mps 737 mmHg 74%
    02:00 +2°C° 0 mm 3 mps 737 mmHg 74%
    03:00 +1°C° 0 mm 3 mps 737 mmHg 74%
    04:00 +1°C° 0 mm 3 mps 738 mmHg 75%
    05:00 0°C° 0 mm 3 mps 738 mmHg 76%
    06:00 0°C° 0 mm 4 mps 738 mmHg 68%
    07:00 0°C° 0 mm 4 mps 739 mmHg 61%
    08:00 +1°C° 0 mm 5 mps 739 mmHg 53%
    09:00 +2°C° 0 mm 5 mps 739 mmHg 50%
    10:00 +3°C° 0 mm 5 mps 740 mmHg 47%
    11:00 +4°C° 0 mm 4 mps 740 mmHg 44%
    12:00 +5°C° 0 mm 4 mps 740 mmHg 43%
    13:00 +6°C° 0 mm 4 mps 740 mmHg 41%
    14:00 +6°C° 0 mm 4 mps 740 mmHg 40%
    15:00 +6°C° 0 mm 4 mps 740 mmHg 41%
    16:00 +6°C° 0 mm 4 mps 740 mmHg 42%
    17:00 +7°C° 0 mm 3 mps 740 mmHg 42%
    18:00 +4°C° 0 mm 3 mps 741 mmHg 47%
    19:00 +4°C° 0 mm 2 mps 741 mmHg 52%
    20:00 +4°C° 0 mm 1 mps 741 mmHg 57%
    21:00 +3°C° 0 mm 1 mps 741 mmHg 58%
    22:00 +3°C° 0 mm 1 mps 742 mmHg 59%
    23:00 +1°C° 0 mm 0 mps 742 mmHg 60%

    24 April, Tuesday

    Time Temperature Precipitation Wind Pressure Humidity
    00:00 +2°C° 0 mm 1 mps 742 mmHg 61%
    01:00 +2°C° 0 mm 1 mps 741 mmHg 61%
    02:00 +2°C° 0 mm 1 mps 741 mmHg 62%
    03:00 +2°C° 0 mm 1 mps 742 mmHg 63%
    04:00 +2°C° 0 mm 1 mps 742 mmHg 63%
    05:00 +1°C° 0 mm 2 mps 742 mmHg 64%
    06:00 +2°C° 0 mm 2 mps 742 mmHg 60%
    07:00 +4°C° 0 mm 2 mps 742 mmHg 57%
    08:00 +4°C° 0 mm 3 mps 741 mmHg 53%
    09:00 +5°C° 0 mm 3 mps 741 mmHg 52%
    10:00 +6°C° 0 mm 4 mps 741 mmHg 50%
    11:00 +7°C° 0 mm 4 mps 741 mmHg 48%
    12:00 +7°C° 0 mm 4 mps 740 mmHg 50%
    13:00 +8°C° 0 mm 4 mps 740 mmHg 51%
    14:00 +8°C° 0 mm 4 mps 740 mmHg 52%
    15:00 +8°C° 0.2 mm 4 mps 739 mmHg 59%
    16:00 +8°C° 0.2 mm 3 mps 739 mmHg 66%
    17:00 +7°C° 0.2 mm 3 mps 738 mmHg 72%
    18:00 +7°C° 0.2 mm 3 mps 738 mmHg 76%
    19:00 +7°C° 0.2 mm 3 mps 738 mmHg 80%
    20:00 +5°C° 0.2 mm 3 mps 738 mmHg 84%
    21:00 +5°C° 0.2 mm 4 mps 737 mmHg 86%
    22:00 +5°C° 0.2 mm 4 mps 737 mmHg 88%
    23:00 +5°C° 0.2 mm 4 mps 737 mmHg 91%

    25 April, Wednesday

    Time Temperature Precipitation Wind Pressure Humidity
    00:00 +5°C° 0.3 mm 4 mps 737 mmHg 92%
    01:00 +5°C° 0.3 mm 4 mps 737 mmHg 93%
    02:00 +5°C° 0.3 mm 4 mps 736 mmHg 94%
    03:00 +5°C° 0.1 mm 3 mps 736 mmHg 95%
    04:00 +5°C° 0.1 mm 3 mps 737 mmHg 95%
    05:00 +5°C° 0.1 mm 3 mps 737 mmHg 96%
    06:00 +7°C° 0 mm 3 mps 737 mmHg 92%
    07:00 +8°C° 0 mm 3 mps 737 mmHg 87%
    08:00 +8°C° 0 mm 4 mps 737 mmHg 83%
    09:00 +10°C° 0 mm 4 mps 737 mmHg 75%
    10:00 +12°C° 0 mm 5 mps 737 mmHg 67%
    11:00 +13°C° 0 mm 5 mps 737 mmHg 59%
    12:00 +13°C° 0 mm 6 mps 736 mmHg 60%
    13:00 +13°C° 0 mm 6 mps 736 mmHg 61%
    14:00 +13°C° 0 mm 6 mps 736 mmHg 63%
    15:00 +11°C° 0.5 mm 6 mps 736 mmHg 69%
    16:00 +12°C° 0.5 mm 5 mps 735 mmHg 76%
    17:00 +10°C° 0.5 mm 5 mps 735 mmHg 83%
    18:00 +10°C° 0.2 mm 5 mps 735 mmHg 86%
    19:00 +10°C° 0.2 mm 4 mps 735 mmHg 89%
    20:00 +10°C° 0.2 mm 4 mps 734 mmHg 92%
    21:00 +10°C° 0.2 mm 4 mps 734 mmHg 92%
    22:00 +9°C° 0.2 mm 5 mps 734 mmHg 93%
    23:00 +9°C° 0.2 mm 5 mps 734 mmHg 93%

    26 April, Thursday

    Time Temperature Precipitation Wind Pressure Humidity
    00:00 +9°C° 0.1 mm 5 mps 733 mmHg 93%
    01:00 +9°C° 0.1 mm 5 mps 733 mmHg 93%
    02:00 +10°C° 0.1 mm 4 mps 733 mmHg 92%
    03:00 +8°C° 0 mm 4 mps 733 mmHg 93%
    04:00 +7°C° 0 mm 4 mps 734 mmHg 93%
    05:00 +8°C° 0 mm 3 mps 734 mmHg 94%
    06:00 +8°C° 0 mm 3 mps 734 mmHg 87%
    07:00 +8°C° 0 mm 4 mps 734 mmHg 80%
    08:00 +8°C° 0 mm 4 mps 734 mmHg 74%
    09:00 +10°C° 0.1 mm 3 mps 734 mmHg 71%
    10:00 +10°C° 0.1 mm 3 mps 734 mmHg 69%
    11:00 +10°C° 0.1 mm 3 mps 734 mmHg 67%
    12:00 +10°C° 0.1 mm 4 mps 734 mmHg 66%
    13:00 +11°C° 0.1 mm 4 mps 734 mmHg 65%
    14:00 +10°C° 0.1 mm 5 mps 734 mmHg 65%
    15:00 +10°C° 0.1 mm 5 mps 734 mmHg 63%
    16:00 +10°C° 0.1 mm 5 mps 734 mmHg 61%
    17:00 +11°C° 0.1 mm 6 mps 735 mmHg 59%
    18:00 +9°C° 0 mm 5 mps 735 mmHg 63%
    19:00 +8°C° 0 mm 5 mps 736 mmHg 67%
    20:00 +7°C° 0 mm 4 mps 737 mmHg 71%
    21:00 +6°C° 0 mm 4 mps 737 mmHg 73%
    22:00 +6°C° 0 mm 4 mps 738 mmHg 76%
    23:00 +5°C° 0 mm 4 mps 738 mmHg 78%
    Show more